Regional Weather Roundup
Issued by NWS

Home | Current Version | Previous Version | Graphics & Text | Print | Product List | Glossary On
Versions: 1 2 3 4 5 6 7 8 9 10 11 12 13 14 15 16 17 18 19 20 21 22 23 24 25 26 27 28 29 30 31 32 33 34 35 36 37 38 39 40 41 42 43 44 45 46 47 48 49 50
000
ASUS43 KMPX 270510
RWRMN
WEATHER ROUNDUP FOR MINNESOTA
NATIONAL WEATHER SERVICE TWIN CITIES/CHANHASSEN MN
1200 AM CDT MON MAR 27 2017


NOTE: "FAIR" INDICATES FEW OR NO CLOUDS BELOW 12,000 FEET WITH NO
SIGNIFICANT WEATHER AND/OR OBSTRUCTIONS TO VISIBILITY. N/A MEANS
CURRENT SKY AND/OR WEATHER CONDITIONS ARE NOT AVAILABLE.

MNZ060>063-068>070-270600-
   Twin Cities Metro

CITY           SKY/WX    TMP DP  RH WIND       PRES   REMARKS
TWIN CITIES    CLOUDY    39  35  86 N5        29.94F
ST PAUL        CLOUDY    39  37  92 NW7       29.95F
CRYSTAL        CLOUDY    38  33  82 N3        29.94F
BLAINE         CLOUDY    39  39 100 N3        29.95S
LAKEVILLE      CLOUDY    37  37 100 N5        29.94F
EDEN PRAIRIE   CLOUDY    39  36  89 N5        29.93F
SOUTH ST PAUL  CLOUDY    39  37  93 N3        29.94F
LAKE ELMO      CLOUDY    37  36  93 NW3       29.95F
$$
MNZ001>005-007-008-013>017-022>024-027-028-270600-
   Northwest Minnesota

CITY           SKY/WX    TMP DP  RH WIND       PRES   REMARKS
BEMIDJI        MOCLDY    34  31  89 W3        29.93S
HALLOCK        FOG       30  30 100 CALM      29.96R VSB 1/4
ROSEAU         HAZE      30  27  86 CALM      29.94S VSB 1/4
WARROAD        CLEAR     30  27  86 W3        29.94S FOG
THIEF RVR FALL FOG       32  29  88 CALM      29.95F VSB 1/4
CROOKSTON      FOG       32  30  93 CALM      29.96S VSB 1/4
FOSSTON        CLOUDY    34  34 100 CALM      29.95S FOG
DETROIT LAKES  CLOUDY    37  36  93 CALM      29.95S
MOORHEAD       CLOUDY    37  36  93 CALM      29.96S
PARK RAPIDS    CLOUDY    35  29  78 CALM      29.93R
MAHNOMEN       FAIR      36  35  96 CALM      29.95R
$$
MNZ006-009>011-018-025>026-270600-
   North Central Minnesota

CITY           SKY/WX    TMP DP  RH WIND       PRES   REMARKS
BAUDETTE       CLEAR     29  28  96 CALM      29.93S FOG
FLAG ISLAND    CLEAR     30  28  93 CALM      29.93S
INTL FALLS     PTCLDY    32  27  81 CALM      29.92S
WASKISH        PTCLDY    30  28  93 CALM      29.93F
BIG FORK       PTCLDY    34  28  80 CALM      29.92S
LONGVILLE      CLOUDY    32  30  93 CALM      29.93S
GRAND RAPIDS   CLOUDY    36  32  85 CALM      29.94R
CRANE LAKE     CLOUDY    30  27  86 CALM      29.93S
ORR            CLOUDY    34  28  80 CALM      29.90S
COOK           CLOUDY    34  28  80 CALM      29.92R
WALKER         FAIR      35  30  84 CALM      29.93S
$$
MNZ012-019>021-037-270600-
   Northeast Minnesota

CITY           SKY/WX    TMP DP  RH WIND       PRES   REMARKS
DULUTH         FOG       32  31  96 CALM      29.92S VSB 3/4
ELY            CLOUDY    28  27  93 CALM      29.91S
HIBBING        CLOUDY    29  29 100 CALM      29.92R
EVELETH        PTCLDY    30  28  94 CALM      29.93R
DULUTH HARBOR  CLOUDY    34  34 100 CALM      29.97R
TWO HARBORS    HAZE      36  30  80 CALM      29.92R VSB 1/2
SILVER BAY     FOG       34  34 100 CALM      29.92R VSB 1/2
G MARAIS ARPRT FOG       28  27  93 CALM      29.89F VSB 1/2
$$
MNZ029>031-032-039>041-046>048-054>057-064-270600-
   West Central Minnesota

CITY           SKY/WX    TMP DP  RH WIND       PRES   REMARKS
FERGUS FALLS   PTCLDY    37  36  93 NE3       29.98S
WHEATON        PTCLDY    32  30  93 CALM      29.97S
MORRIS         PTCLDY    37  36  93 CALM      29.93F
ALEXANDRIA     CLOUDY    40  34  79 CALM      29.94S
ELBOW LAKE     MOCLDY    37  36  95 N3        29.95S
WADENA         CLOUDY    36  30  80 CALM      29.93S
GLENWOOD       CLOUDY    39  36  87 CALM      29.95S
APPLETON       PTCLDY    37  36  93 CALM      29.95S
BENSON         PTCLDY    39  34  81 CALM      29.97S
ORTONVILLE     CLOUDY    37  36  93 CALM      29.95S
MADISON        PTCLDY    37  37 100 SW3       29.96S FOG
WILLMAR        CLOUDY    39  37  93 CALM      29.97R
$$
MNZ033>034-036-042>043-049>051-058-059-270600-
   Central Minnesota

CITY           SKY/WX    TMP DP  RH WIND       PRES   REMARKS
ST CLOUD       CLOUDY    37  37 100 CALM      29.95S
SAUK CENTRE    CLOUDY    36  34  93 S3        29.95R
PAYNESVILLE      N/A     37  37 100 CALM      29.95F
AITKIN         CLOUDY    34  28  80 CALM      29.92S
PINE RIVER     CLOUDY    34  30  86 CALM      29.97S
BRAINERD       CLOUDY    35  32  88 SW3       29.94S
STAPLES        CLOUDY    36  32  87 CALM      29.94S
LONG PRAIRIE   MOCLDY    34  32  93 CALM      29.94S
LITTLE FALLS   CLOUDY    34  32  93 CALM      29.95S
LITCHFIELD     CLOUDY    39  37  93 CALM      29.95S
BUFFALO        CLOUDY    37  36  93 CALM      29.95F
MAPLE LAKE     CLOUDY    38  37  99 CALM      29.95F FOG
HUTCHINSON     CLOUDY    39  38  94 CALM      29.96S
$$
MNZ037-044-045-052-053-270600-
   East Central Minnesota

CITY           SKY/WX    TMP DP  RH WIND       PRES   REMARKS
PRINCETON      CLOUDY    37  36  93 CALM      29.95F
MORA           CLOUDY    34  32  93 CALM      29.96F FOG
CAMBRIDGE      CLOUDY    37  36  93 CALM      29.94S
RUSH CITY      CLOUDY    35  34  95 CALM      29.95S
MOOSE LAKE     CLOUDY    32  32 100 CALM      29.93R
CLOQUET        FOG       30  30 100 CALM      29.93R VSB 1
MCGREGOR       PTCLDY    30  30 100 CALM      29.94R
$$
MNZ071>073-080-081-089-090-097-098-270600-
   Southwest Minnesota

CITY           SKY/WX    TMP DP  RH WIND       PRES   REMARKS
MONTEVIDEO     PTCLDY    37  36  93 NW3       29.98R
GRANITE FALLS  CLOUDY    40  38  93 SW6       29.98R
CANBY          PTCLDY    39  37  92 CALM      29.96F
MARSHALL       CLOUDY    37  35  92 W6        29.96F
REDWOOD FALLS  CLOUDY    40  36  86 S3        29.96S
OLIVIA         CLOUDY    37  36  93 S3        29.96R
PIPESTONE      CLOUDY    39  36  87 CALM      29.94F
WINDOM         CLOUDY    39  37  93 CALM      29.95F
WORTHINGTON    CLOUDY    39  37  92 W5        29.96F
JACKSON        CLOUDY    37  36  93 CALM      29.95F
TRACY          CLOUDY    40  38  92 W3        29.96S
SLAYTON        CLOUDY    38  37  95 W5        29.96F
$$
MNZ065>067-074>077-082>085-091>093-270600-
   South Central Minnesota

CITY           SKY/WX    TMP DP  RH WIND       PRES   REMARKS
MANKATO        CLOUDY    38  37  97 CALM      29.96R
NEW ULM        CLOUDY    37  36  93 CALM      29.96S
ST JAMES       CLOUDY    37  37 100 CALM      29.97F
FAIRMONT       CLOUDY    40  37  89 NW5       29.96F
GLENCOE        CLOUDY    38  38 100 CALM      29.94S
FARIBAULT      CLOUDY    39  39 100 N3        29.94S FOG
OWATONNA       CLOUDY    39  37  93 W3        29.94R FOG
WASECA         CLOUDY    39  37  93 W5        29.96R FOG
ALBERT LEA     CLOUDY    39  39 100 NW3       29.93F FOG
$$
MNZ078>079-086>088-094>096-270600-
   Southeast Minnesota

CITY           SKY/WX    TMP DP  RH WIND       PRES   REMARKS
ROCHESTER      CLOUDY    39  39 100 N3        29.92F FOG
RED WING       CLOUDY    41  39  93 CALM      29.93S FOG
STANTON        CLOUDY    39  38  94 N3        29.93S FOG
DODGE CENTER   FOG       37  37 100 NW3       29.93S VSB 3/4
WINONA         CLOUDY    41  37  87 CALM      29.93F
AUSTIN         CLOUDY    39  37  93 CALM      29.93R FOG
PRESTON        FOG       38  37  97 NW5       29.92S VSB 1/2
$$
ABBREVIATIONS USED IN REMARKS
   TC - TEMPERATURES IN CELSIUS
  WCI - WIND CHILL INDEX
   HX - HEAT INDEX
  VSB - VISIBILITY
$$



USA.gov is the U.S. government's official web portal to all federal, state and local government web resources and services.